Weather History for Chennai, India

Change the Weather History Date:

Saturday, March 16, 2013

  Actual Average Record
Temperature  
Mean Temperature 82 °F -  
Max Temperature 91 °F 90 °F 93 °F (1997)
Min Temperature 73 °F 76 °F 69 °F (2004)
Cooling Degree Days 17    
Growing Degree Days 32 (Base 50)    
Moisture  
Dew Point 71 °F    
Average Humidity 69    
Maximum Humidity 94    
Minimum Humidity 35    
Precipitation  
Precipitation 0.00 in 0.01 in - ()
Sea Level Pressure  
Sea Level Pressure 29.93 in    
Wind  
Wind Speed 3 mph ()    
Max Wind Speed 12 mph    
Max Gust Speed -    
Visibility 3.5 miles    
Events      
Averages and records for this station are not official NWS values.
T = Trace of Precipitation, MM = Missing Value Source: Averaged Metar Reports

Daily Weather History Graph

Daily Weather History Graph

Search for Another Location

Airport:

Trip Planner

Search our weather history database for the weather conditions in past years. The results will help you decide how hot, cold, wet, or windy it might be!

Date:

Astronomy

Mar. 16, 2013 Rise Set
Actual Time 6:16 AM IST 6:19 PM IST
Civil Twilight 5:54 AM IST 6:41 PM IST
Nautical Twilight 5:30 AM IST 7:05 PM IST
Astronomical Twilight 5:05 AM IST 7:30 PM IST
Moon 9:14 AM IST (3/16) 10:12 PM IST (3/16)
Length of Visible Light 12h 46m
Length of Day
12h 03m
Waxing Crescent, 19% of the Moon is Illuminated
Mar 16
Waxing Crescent
Mar 19
First Quarter
Mar 27
Full
Apr 3
Last Quarter
Apr 10
New

Hourly Weather History & Observations

Time (IST) Temp. Heat Index Dew Point Humidity Pressure Visibility Wind Dir Wind Speed Gust Speed Precip Events Conditions
12:10 AM 80.6 °F 85.4 °F 73.4 °F 79% 29.95 in 3.7 mi Calm Calm - N/A   Partly Cloudy
12:40 AM 80.6 °F 85.4 °F 73.4 °F 79% 29.92 in 3.7 mi Calm Calm - N/A   Partly Cloudy
1:10 AM 78.8 °F - 73.4 °F 83% 29.92 in 3.7 mi Calm Calm - N/A   Scattered Clouds
1:40 AM 77.0 °F - 73.4 °F 89% 29.89 in 3.7 mi Calm Calm - N/A   Scattered Clouds
2:10 AM 77.0 °F - 73.4 °F 89% 29.89 in 3.7 mi Calm Calm - N/A   Partly Cloudy
2:30 AM 77 °F - 73 °F 84% 29.91 in 2 mi Calm Calm - -   Scattered Clouds
2:40 AM 77.0 °F - 73.4 °F 89% 29.86 in 3.7 mi Calm Calm - N/A   Partly Cloudy
3:10 AM 77.0 °F - 73.4 °F 89% 29.86 in 3.7 mi Calm Calm - N/A   Partly Cloudy
3:40 AM 75.2 °F - 73.4 °F 94% 29.89 in 2.5 mi Calm Calm - N/A   Haze
4:10 AM 75.2 °F - 73.4 °F 94% 29.89 in 2.5 mi Calm Calm - N/A   Haze
5:10 AM 75.2 °F - 73.4 °F 94% 29.89 in 1.6 mi Calm Calm - N/A   Haze
5:30 AM 76 °F - 72 °F 86% 29.92 in 2 mi NW 2.3 mph - -   Haze
5:40 AM 75.2 °F - 73.4 °F 94% 29.89 in 1.2 mi Calm Calm - N/A   Partly Cloudy
6:40 AM 73.4 °F - 71.6 °F 94% 29.92 in 0.8 mi Calm Calm - N/A   Scattered Clouds
7:10 AM 75.2 °F - 73.4 °F 94% 29.95 in 0.8 mi Calm Calm - N/A   Scattered Clouds
7:40 AM 77.0 °F - 73.4 °F 89% 29.95 in 0.9 mi Calm Calm - N/A   Scattered Clouds
8:30 AM 81 °F - 73 °F 71% 30.01 in 2 mi Calm Calm - -   Haze
9:10 AM 82.4 °F 88.2 °F 73.4 °F 74% 29.98 in 2.5 mi East 4.6 mph - N/A   Haze
10:10 AM 84.2 °F 89.6 °F 71.6 °F 66% 29.98 in 3.1 mi NNE 2.3 mph - N/A   Haze
10:40 AM 87.8 °F 92.6 °F 69.8 °F 55% 29.98 in 3.1 mi East 3.5 mph - N/A   Haze
11:10 AM 89.6 °F 93.4 °F 68.0 °F 49% 29.98 in 3.1 mi SE 5.8 mph - N/A   Haze
11:30 AM 90 °F - 69 °F 40% 30.01 in 6 mi ENE 4.6 mph - -   Scattered Clouds
11:40 AM 89.6 °F 93.4 °F 68.0 °F 49% 29.95 in 3.1 mi ESE 4.6 mph - N/A   Haze
12:10 PM 87.8 °F 92.6 °F 69.8 °F 55% 29.95 in 3.7 mi ENE 9.2 mph - N/A   Partly Cloudy
12:40 PM 89.6 °F 94.7 °F 69.8 °F 52% 29.95 in 4.3 mi ESE 9.2 mph - N/A   Partly Cloudy
1:10 PM 89.6 °F 93.4 °F 68.0 °F 49% 29.92 in 4.3 mi ESE 4.6 mph - N/A   Partly Cloudy
1:40 PM 91.4 °F 95.4 °F 68.0 °F 46% 29.92 in 5.0 mi East 10.4 mph - N/A   Partly Cloudy
2:10 PM 91.4 °F 95.4 °F 68.0 °F 46% 29.89 in 5.0 mi ESE 10.4 mph - N/A   Partly Cloudy
2:30 PM 91 °F - 67 °F 35% 29.93 in 6 mi SSE 4.6 mph - -  
2:40 PM 89.6 °F 93.4 °F 68.0 °F 49% 29.89 in 5.0 mi ESE 11.5 mph - N/A   Partly Cloudy
3:10 PM 89.6 °F 93.4 °F 68.0 °F 49% 29.89 in 5.0 mi East 10.4 mph - N/A   Partly Cloudy
3:40 PM 87.8 °F 90.4 °F 66.2 °F 49% 29.86 in 5.0 mi East 11.5 mph - N/A   Partly Cloudy
4:10 PM 87.8 °F 91.4 °F 68.0 °F 52% 29.86 in 5.0 mi ESE 9.2 mph - N/A   Unknown
4:40 PM 87.8 °F 91.4 °F 68.0 °F 52% 29.89 in 5.0 mi ESE 10.4 mph - N/A   Unknown
5:10 PM 86.0 °F 89.4 °F 68.0 °F 55% 29.89 in 5.0 mi ESE 10.4 mph - N/A   Unknown
5:30 PM 86 °F - 68 °F 45% 29.92 in 6 mi SE 3.5 mph - -  
5:40 PM 84.2 °F 87.3 °F 68.0 °F 58% 29.89 in 4.3 mi ESE 8.1 mph - N/A   Unknown
6:10 PM 84.2 °F 87.3 °F 68.0 °F 58% 29.89 in 3.7 mi ESE 6.9 mph - N/A   Unknown
6:40 PM 82.4 °F 86.3 °F 69.8 °F 66% 29.89 in 3.7 mi ESE 9.2 mph - N/A   Unknown
7:10 PM 82.4 °F 87.2 °F 71.6 °F 70% 29.92 in 3.7 mi ESE 9.2 mph - N/A   Unknown
7:40 PM 82.4 °F 87.2 °F 71.6 °F 70% 29.92 in 3.7 mi East 8.1 mph - N/A   Unknown
8:10 PM 82.4 °F 87.2 °F 71.6 °F 70% 29.95 in 3.7 mi ESE 6.9 mph - N/A   Unknown
8:30 PM 81 °F - 72 °F 69% 29.96 in 2 mi East 2.3 mph - -   Clear
8:40 PM 80.6 °F 84.6 °F 71.6 °F 74% 29.95 in 3.7 mi SE 5.8 mph - N/A   Unknown
9:10 PM 80.6 °F 84.6 °F 71.6 °F 74% 29.95 in 3.7 mi SE 5.8 mph - N/A   Unknown
9:40 PM 80.6 °F 84.6 °F 71.6 °F 74% 29.95 in 3.7 mi ESE 6.9 mph - N/A   Unknown
10:10 PM 80.6 °F 84.6 °F 71.6 °F 74% 29.95 in 3.7 mi SE 5.8 mph - N/A   Unknown
10:40 PM 80.6 °F 84.6 °F 71.6 °F 74% 29.95 in 3.7 mi ESE 4.6 mph - N/A   Unknown
11:10 PM 78.8 °F - 71.6 °F 78% 29.95 in 3.7 mi East 4.6 mph - N/A   Unknown
11:30 PM 79 °F - 72 °F 75% 29.97 in 2 mi East 2.3 mph - -   Scattered Clouds
11:40 PM 78.8 °F - 71.6 °F 78% 29.95 in 3.7 mi ESE 4.6 mph - N/A   Unknown